Netzbetreibername:;Stadtwerke Greifswald GmbH;
Netz- oder Umspannebene:;Mittelspannung;
Lastgangtyp:;Entnahme aus vorgelagerter Netzebene;
gesetzliche Grundlage:;� 17 Abs. 2 Nr. 5 StromNZV;
Einheit:;kW;
Betrachtungszeitraum:;2019;
;;
Datum;Zeit;Wirkleistung [kW]
01.01.2019;00:15:00;260,4
01.01.2019;00:30:00;355,2
01.01.2019;00:45:00;350,4
01.01.2019;01:00:00;348
01.01.2019;01:15:00;343,2
01.01.2019;01:30:00;315,6
01.01.2019;01:45:00;309,6
01.01.2019;02:00:00;313,2
01.01.2019;02:15:00;310,8
01.01.2019;02:30:00;326,4
01.01.2019;02:45:00;339,6
01.01.2019;03:00:00;357,6
01.01.2019;03:15:00;340,8
01.01.2019;03:30:00;327,6
01.01.2019;03:45:00;334,8
01.01.2019;04:00:00;333,6
01.01.2019;04:15:00;336
01.01.2019;04:30:00;328,8
01.01.2019;04:45:00;334,8
01.01.2019;05:00:00;278,4
01.01.2019;05:15:00;210
01.01.2019;05:30:00;225,6
01.01.2019;05:45:00;214,8
01.01.2019;06:00:00;204
01.01.2019;06:15:00;195,6
01.01.2019;06:30:00;206,4
01.01.2019;06:45:00;199,2
01.01.2019;07:00:00;204
01.01.2019;07:15:00;202,8
01.01.2019;07:30:00;195,6
01.01.2019;07:45:00;208,8
01.01.2019;08:00:00;213,6
01.01.2019;08:15:00;218,4
01.01.2019;08:30:00;217,2
01.01.2019;08:45:00;201,6
01.01.2019;09:00:00;211,2
01.01.2019;09:15:00;226,8
01.01.2019;09:30:00;225,6
01.01.2019;09:45:00;217,2
01.01.2019;10:00:00;214,8
01.01.2019;10:15:00;218,4
01.01.2019;10:30:00;228
01.01.2019;10:45:00;238,8
01.01.2019;11:00:00;255,6
01.01.2019;11:15:00;250,8
01.01.2019;11:30:00;256,8
01.01.2019;11:45:00;250,8
01.01.2019;12:00:00;258
01.01.2019;12:15:00;246
01.01.2019;12:30:00;237,6
01.01.2019;12:45:00;298,8
01.01.2019;13:00:00;375,6
01.01.2019;13:15:00;366
01.01.2019;13:30:00;372
01.01.2019;13:45:00;370,8
01.01.2019;14:00:00;364,8
01.01.2019;14:15:00;357,6
01.01.2019;14:30:00;369,6
01.01.2019;14:45:00;362,4
01.01.2019;15:00:00;358,8
01.01.2019;15:15:00;360
01.01.2019;15:30:00;351,6
01.01.2019;15:45:00;348
01.01.2019;16:00:00;345,6
01.01.2019;16:15:00;349,2
01.01.2019;16:30:00;282
01.01.2019;16:45:00;282
01.01.2019;17:00:00;273,6
01.01.2019;17:15:00;274,8
01.01.2019;17:30:00;273,6
01.01.2019;17:45:00;283,2
01.01.2019;18:00:00;272,4
01.01.2019;18:15:00;262,8
01.01.2019;18:30:00;271,2
01.01.2019;18:45:00;268,8
01.01.2019;19:00:00;274,8
01.01.2019;19:15:00;274,8
01.01.2019;19:30:00;273,6
01.01.2019;19:45:00;260,4
01.01.2019;20:00:00;249,6
01.01.2019;20:15:00;250,8
01.01.2019;20:30:00;250,8
01.01.2019;20:45:00;247,2
01.01.2019;21:00:00;241,2
01.01.2019;21:15:00;232,8
01.01.2019;21:30:00;229,2
01.01.2019;21:45:00;223,2
01.01.2019;22:00:00;226,8
01.01.2019;22:15:00;220,8
01.01.2019;22:30:00;229,2
01.01.2019;22:45:00;229,2
01.01.2019;23:00:00;224,4
01.01.2019;23:15:00;216
01.01.2019;23:30:00;195,6
01.01.2019;23:45:00;186
02.01.2019;00:00:00;176,4
02.01.2019;00:15:00;196,8
02.01.2019;00:30:00;324
02.01.2019;00:45:00;327,6
02.01.2019;01:00:00;334,8
02.01.2019;01:15:00;336
02.01.2019;01:30:00;336
02.01.2019;01:45:00;327,6
02.01.2019;02:00:00;322,8
02.01.2019;02:15:00;320,4
02.01.2019;02:30:00;328,8
02.01.2019;02:45:00;325,2
02.01.2019;03:00:00;330
02.01.2019;03:15:00;322,8
02.01.2019;03:30:00;325,2
02.01.2019;03:45:00;330
02.01.2019;04:00:00;328,8
02.01.2019;04:15:00;242,4
02.01.2019;04:30:00;222
02.01.2019;04:45:00;256,8
02.01.2019;05:00:00;240
02.01.2019;05:15:00;235,2
02.01.2019;05:30:00;241,2
02.01.2019;05:45:00;237,6
02.01.2019;06:00:00;240
02.01.2019;06:15:00;276
02.01.2019;06:30:00;298,8
02.01.2019;06:45:00;309,6
02.01.2019;07:00:00;307,2
02.01.2019;07:15:00;328,8
02.01.2019;07:30:00;298,8
02.01.2019;07:45:00;307,2
02.01.2019;08:00:00;255,6
02.01.2019;08:15:00;262,8
02.01.2019;08:30:00;264
02.01.2019;08:45:00;324
02.01.2019;09:00:00;340,8
02.01.2019;09:15:00;345,6
02.01.2019;09:30:00;330
02.01.2019;09:45:00;319,2
02.01.2019;10:00:00;322,8
02.01.2019;10:15:00;325,2
02.01.2019;10:30:00;307,2
02.01.2019;10:45:00;276
02.01.2019;11:00:00;280,8
02.01.2019;11:15:00;320,4
02.01.2019;11:30:00;338,4
02.01.2019;11:45:00;322,8
02.01.2019;12:00:00;348
02.01.2019;12:15:00;319,2
02.01.2019;12:30:00;314,4
02.01.2019;12:45:00;312
02.01.2019;13:00:00;312
02.01.2019;13:15:00;325,2
02.01.2019;13:30:00;346,8
02.01.2019;13:45:00;332,4
02.01.2019;14:00:00;295,2
02.01.2019;14:15:00;314,4
02.01.2019;14:30:00;333,6
02.01.2019;14:45:00;336
02.01.2019;15:00:00;357,6
02.01.2019;15:15:00;360
02.01.2019;15:30:00;360
02.01.2019;15:45:00;406,8
02.01.2019;16:00:00;483,6
02.01.2019;16:15:00;480
02.01.2019;16:30:00;487,2
02.01.2019;16:45:00;500,4
02.01.2019;17:00:00;500,4
02.01.2019;17:15:00;517,2
02.01.2019;17:30:00;528
02.01.2019;17:45:00;538,8
02.01.2019;18:00:00;525,6
02.01.2019;18:15:00;416,4
02.01.2019;18:30:00;358,8
02.01.2019;18:45:00;360
02.01.2019;19:00:00;338,4
02.01.2019;19:15:00;326,4
02.01.2019;19:30:00;304,8
02.01.2019;19:45:00;301,2
02.01.2019;20:00:00;278,4
02.01.2019;20:15:00;277,2
02.01.2019;20:30:00;283,2
02.01.2019;20:45:00;266,4
02.01.2019;21:00:00;259,2
02.01.2019;21:15:00;256,8
02.01.2019;21:30:00;242,4
02.01.2019;21:45:00;223,2
02.01.2019;22:00:00;230,4
02.01.2019;22:15:00;244,8
02.01.2019;22:30:00;237,6
02.01.2019;22:45:00;252
02.01.2019;23:00:00;243,6
02.01.2019;23:15:00;236,4
02.01.2019;23:30:00;234
02.01.2019;23:45:00;223,2
03.01.2019;00:00:00;226,8
03.01.2019;00:15:00;212,4
03.01.2019;00:30:00;211,2
03.01.2019;00:45:00;204
03.01.2019;01:00:00;204
03.01.2019;01:15:00;202,8
03.01.2019;01:30:00;201,6
03.01.2019;01:45:00;206,4
03.01.2019;02:00:00;202,8
03.01.2019;02:15:00;204
03.01.2019;02:30:00;206,4
03.01.2019;02:45:00;199,2
03.01.2019;03:00:00;196,8
03.01.2019;03:15:00;201,6
03.01.2019;03:30:00;202,8
03.01.2019;03:45:00;214,8
03.01.2019;04:00:00;217,2
03.01.2019;04:15:00;206,4
03.01.2019;04:30:00;205,2
03.01.2019;04:45:00;255,6
03.01.2019;05:00:00;252
03.01.2019;05:15:00;276
03.01.2019;05:30:00;271,2
03.01.2019;05:45:00;302,4
03.01.2019;06:00:00;327,6
03.01.2019;06:15:00;342
03.01.2019;06:30:00;334,8
03.01.2019;06:45:00;315,6
03.01.2019;07:00:00;322,8
03.01.2019;07:15:00;355,2
03.01.2019;07:30:00;346,8
03.01.2019;07:45:00;405,6
03.01.2019;08:00:00;255,6
03.01.2019;08:15:00;132
03.01.2019;08:30:00;136,8
03.01.2019;08:45:00;141,6
03.01.2019;09:00:00;141,6
03.01.2019;09:15:00;363,6
03.01.2019;09:30:00;412,8
03.01.2019;09:45:00;398,4
03.01.2019;10:00:00;400,8
03.01.2019;10:15:00;405,6
03.01.2019;10:30:00;387,6
03.01.2019;10:45:00;379,2
03.01.2019;11:00:00;379,2
03.01.2019;11:15:00;405,6
03.01.2019;11:30:00;410,4
03.01.2019;11:45:00;394,8
03.01.2019;12:00:00;404,4
03.01.2019;12:15:00;394,8
03.01.2019;12:30:00;393,6
03.01.2019;12:45:00;373,2
03.01.2019;13:00:00;360
03.01.2019;13:15:00;360
03.01.2019;13:30:00;362,4
03.01.2019;13:45:00;354
03.01.2019;14:00:00;392,4
03.01.2019;14:15:00;386,4
03.01.2019;14:30:00;361,2
03.01.2019;14:45:00;369,6
03.01.2019;15:00:00;397,2
03.01.2019;15:15:00;376,8
03.01.2019;15:30:00;370,8
03.01.2019;15:45:00;361,2
03.01.2019;16:00:00;346,8
03.01.2019;16:15:00;348
03.01.2019;16:30:00;362,4
03.01.2019;16:45:00;380,4
03.01.2019;17:00:00;387,6
03.01.2019;17:15:00;386,4
03.01.2019;17:30:00;378
03.01.2019;17:45:00;385,2
03.01.2019;18:00:00;384
03.01.2019;18:15:00;312
03.01.2019;18:30:00;312
03.01.2019;18:45:00;308,4
03.01.2019;19:00:00;296,4
03.01.2019;19:15:00;286,8
03.01.2019;19:30:00;280,8
03.01.2019;19:45:00;277,2
03.01.2019;20:00:00;273,6
03.01.2019;20:15:00;267,6
03.01.2019;20:30:00;402
03.01.2019;20:45:00;396
03.01.2019;21:00:00;398,4
03.01.2019;21:15:00;390
03.01.2019;21:30:00;381,6
03.01.2019;21:45:00;379,2
03.01.2019;22:00:00;382,8
03.01.2019;22:15:00;384
03.01.2019;22:30:00;381,6
03.01.2019;22:45:00;376,8
03.01.2019;23:00:00;370,8
03.01.2019;23:15:00;318
03.01.2019;23:30:00;274,8
03.01.2019;23:45:00;255,6
04.01.2019;00:00:00;226,8
04.01.2019;00:15:00;210
04.01.2019;00:30:00;205,2
04.01.2019;00:45:00;206,4
04.01.2019;01:00:00;212,4
04.01.2019;01:15:00;206,4
04.01.2019;01:30:00;201,6
04.01.2019;01:45:00;198
04.01.2019;02:00:00;202,8
04.01.2019;02:15:00;205,2
04.01.2019;02:30:00;201,6
04.01.2019;02:45:00;198
04.01.2019;03:00:00;202,8
04.01.2019;03:15:00;205,2
04.01.2019;03:30:00;204
04.01.2019;03:45:00;212,4
04.01.2019;04:00:00;206,4
04.01.2019;04:15:00;214,8
04.01.2019;04:30:00;224,4
04.01.2019;04:45:00;283,2
04.01.2019;05:00:00;310,8
04.01.2019;05:15:00;308,4
04.01.2019;05:30:00;315,6
04.01.2019;05:45:00;333,6
04.01.2019;06:00:00;351,6
04.01.2019;06:15:00;354
04.01.2019;06:30:00;368,4
04.01.2019;06:45:00;343,2
04.01.2019;07:00:00;344,4
04.01.2019;07:15:00;340,8
04.01.2019;07:30:00;339,6
04.01.2019;07:45:00;363,6
04.01.2019;08:00:00;358,8
04.01.2019;08:15:00;364,8
04.01.2019;08:30:00;378
04.01.2019;08:45:00;366
04.01.2019;09:00:00;360
04.01.2019;09:15:00;373,2
04.01.2019;09:30:00;391,2
04.01.2019;09:45:00;391,2
04.01.2019;10:00:00;421,2
04.01.2019;10:15:00;380,4
04.01.2019;10:30:00;360
04.01.2019;10:45:00;351,6
04.01.2019;11:00:00;384
04.01.2019;11:15:00;445,2
04.01.2019;11:30:00;514,8
04.01.2019;11:45:00;492
04.01.2019;12:00:00;489,6
04.01.2019;12:15:00;475,2
04.01.2019;12:30:00;487,2
04.01.2019;12:45:00;474
04.01.2019;13:00:00;482,4
04.01.2019;13:15:00;513,6
04.01.2019;13:30:00;495,6
04.01.2019;13:45:00;488,4
04.01.2019;14:00:00;488,4
04.01.2019;14:15:00;452,4
04.01.2019;14:30:00;398,4
04.01.2019;14:45:00;406,8
04.01.2019;15:00:00;404,4
04.01.2019;15:15:00;398,4
04.01.2019;15:30:00;410,4
04.01.2019;15:45:00;396
04.01.2019;16:00:00;379,2
04.01.2019;16:15:00;373,2
04.01.2019;16:30:00;373,2
04.01.2019;16:45:00;382,8
04.01.2019;17:00:00;372
04.01.2019;17:15:00;375,6
04.01.2019;17:30:00;404,4
04.01.2019;17:45:00;418,8
04.01.2019;18:00:00;411,6
04.01.2019;18:15:00;340,8
04.01.2019;18:30:00;307,2
04.01.2019;18:45:00;298,8
04.01.2019;19:00:00;278,4
04.01.2019;19:15:00;279,6
04.01.2019;19:30:00;277,2
04.01.2019;19:45:00;274,8
04.01.2019;20:00:00;278,4
04.01.2019;20:15:00;267,6
04.01.2019;20:30:00;268,8
04.01.2019;20:45:00;273,6
04.01.2019;21:00:00;262,8
04.01.2019;21:15:00;250,8
04.01.2019;21:30:00;236,4
04.01.2019;21:45:00;246
04.01.2019;22:00:00;258
04.01.2019;22:15:00;258
04.01.2019;22:30:00;243,6
04.01.2019;22:45:00;236,4
04.01.2019;23:00:00;230,4
04.01.2019;23:15:00;224,4
04.01.2019;23:30:00;220,8
04.01.2019;23:45:00;220,8
05.01.2019;00:00:00;214,8
05.01.2019;00:15:00;208,8
05.01.2019;00:30:00;302,4
05.01.2019;00:45:00;331,2
05.01.2019;01:00:00;330
05.01.2019;01:15:00;326,4
05.01.2019;01:30:00;324
05.01.2019;01:45:00;328,8
05.01.2019;02:00:00;336
05.01.2019;02:15:00;337,2
05.01.2019;02:30:00;331,2
05.01.2019;02:45:00;331,2
05.01.2019;03:00:00;333,6
05.01.2019;03:15:00;336
05.01.2019;03:30:00;336
05.01.2019;03:45:00;328,8
05.01.2019;04:00:00;339,6
05.01.2019;04:15:00;339,6
05.01.2019;04:30:00;266,4
05.01.2019;04:45:00;238,8
05.01.2019;05:00:00;226,8
05.01.2019;05:15:00;202,8
05.01.2019;05:30:00;193,2
05.01.2019;05:45:00;204
05.01.2019;06:00:00;212,4
05.01.2019;06:15:00;201,6
05.01.2019;06:30:00;206,4
05.01.2019;06:45:00;213,6
05.01.2019;07:00:00;219,6
05.01.2019;07:15:00;211,2
05.01.2019;07:30:00;216
05.01.2019;07:45:00;218,4
05.01.2019;08:00:00;208,8
05.01.2019;08:15:00;186
05.01.2019;08:30:00;190,8
05.01.2019;08:45:00;195,6
05.01.2019;09:00:00;200,4
05.01.2019;09:15:00;201,6
05.01.2019;09:30:00;244,8
05.01.2019;09:45:00;247,2
05.01.2019;10:00:00;250,8
05.01.2019;10:15:00;258
05.01.2019;10:30:00;258
05.01.2019;10:45:00;264
05.01.2019;11:00:00;260,4
05.01.2019;11:15:00;258
05.01.2019;11:30:00;261,6
05.01.2019;11:45:00;262,8
05.01.2019;12:00:00;258
05.01.2019;12:15:00;261,6
05.01.2019;12:30:00;334,8
05.01.2019;12:45:00;386,4
05.01.2019;13:00:00;391,2
05.01.2019;13:15:00;379,2
05.01.2019;13:30:00;373,2
05.01.2019;13:45:00;373,2
05.01.2019;14:00:00;368,4
05.01.2019;14:15:00;370,8
05.01.2019;14:30:00;378
05.01.2019;14:45:00;376,8
05.01.2019;15:00:00;360
05.01.2019;15:15:00;366
05.01.2019;15:30:00;367,2
05.01.2019;15:45:00;358,8
05.01.2019;16:00:00;368,4
05.01.2019;16:15:00;349,2
05.01.2019;16:30:00;291,6
05.01.2019;16:45:00;282
05.01.2019;17:00:00;274,8
05.01.2019;17:15:00;267,6
05.01.2019;17:30:00;265,2
05.01.2019;17:45:00;288
05.01.2019;18:00:00;270
05.01.2019;18:15:00;282
05.01.2019;18:30:00;268,8
05.01.2019;18:45:00;274,8
05.01.2019;19:00:00;271,2
05.01.2019;19:15:00;268,8
05.01.2019;19:30:00;258
05.01.2019;19:45:00;249,6
05.01.2019;20:00:00;256,8
05.01.2019;20:15:00;259,2
05.01.2019;20:30:00;258
05.01.2019;20:45:00;259,2
05.01.2019;21:00:00;241,2
05.01.2019;21:15:00;237,6
05.01.2019;21:30:00;234
05.01.2019;21:45:00;235,2
05.01.2019;22:00:00;235,2
05.01.2019;22:15:00;235,2
05.01.2019;22:30:00;226,8
05.01.2019;22:45:00;228
05.01.2019;23:00:00;229,2
05.01.2019;23:15:00;224,4
05.01.2019;23:30:00;222
05.01.2019;23:45:00;214,8
06.01.2019;00:00:00;210
06.01.2019;00:15:00;201,6
06.01.2019;00:30:00;198
06.01.2019;00:45:00;200,4
06.01.2019;01:00:00;196,8
06.01.2019;01:15:00;196,8
06.01.2019;01:30:00;200,4
06.01.2019;01:45:00;211,2
06.01.2019;02:00:00;331,2
06.01.2019;02:15:00;326,4
06.01.2019;02:30:00;334,8
06.01.2019;02:45:00;325,2
06.01.2019;03:00:00;327,6
06.01.2019;03:15:00;331,2
06.01.2019;03:30:00;331,2
06.01.2019;03:45:00;332,4
06.01.2019;04:00:00;339,6
06.01.2019;04:15:00;337,2
06.01.2019;04:30:00;330
06.01.2019;04:45:00;334,8
06.01.2019;05:00:00;318
06.01.2019;05:15:00;248,4
06.01.2019;05:30:00;237,6
06.01.2019;05:45:00;226,8
06.01.2019;06:00:00;204
06.01.2019;06:15:00;200,4
06.01.2019;06:30:00;182,4
06.01.2019;06:45:00;174
06.01.2019;07:00:00;177,6
06.01.2019;07:15:00;194,4
06.01.2019;07:30:00;210
06.01.2019;07:45:00;210
06.01.2019;08:00:00;210
06.01.2019;08:15:00;210
06.01.2019;08:30:00;218,4
06.01.2019;08:45:00;229,2
06.01.2019;09:00:00;235,2
06.01.2019;09:15:00;231,6
06.01.2019;09:30:00;226,8
06.01.2019;09:45:00;253,2
06.01.2019;10:00:00;249,6
06.01.2019;10:15:00;252
06.01.2019;10:30:00;271,2
06.01.2019;10:45:00;259,2
06.01.2019;11:00:00;265,2
06.01.2019;11:15:00;260,4
06.01.2019;11:30:00;266,4
06.01.2019;11:45:00;273,6
06.01.2019;12:00:00;272,4
06.01.2019;12:15:00;265,2
06.01.2019;12:30:00;267,6
06.01.2019;12:45:00;255,6
06.01.2019;13:00:00;250,8
06.01.2019;13:15:00;246
06.01.2019;13:30:00;248,4
06.01.2019;13:45:00;241,2
06.01.2019;14:00:00;242,4
06.01.2019;14:15:00;238,8
06.01.2019;14:30:00;249,6
06.01.2019;14:45:00;243,6
06.01.2019;15:00:00;364,8
06.01.2019;15:15:00;366
06.01.2019;15:30:00;376,8
06.01.2019;15:45:00;368,4
06.01.2019;16:00:00;367,2
06.01.2019;16:15:00;368,4
06.01.2019;16:30:00;385,2
06.01.2019;16:45:00;411,6
06.01.2019;17:00:00;416,4
06.01.2019;17:15:00;416,4
06.01.2019;17:30:00;423,6
06.01.2019;17:45:00;424,8
06.01.2019;18:00:00;417,6
06.01.2019;18:15:00;345,6
06.01.2019;18:30:00;313,2
06.01.2019;18:45:00;298,8
06.01.2019;19:00:00;282
06.01.2019;19:15:00;288
06.01.2019;19:30:00;288
06.01.2019;19:45:00;279,6
06.01.2019;20:00:00;273,6
06.01.2019;20:15:00;282
06.01.2019;20:30:00;273,6
06.01.2019;20:45:00;262,8
06.01.2019;21:00:00;243,6
06.01.2019;21:15:00;243,6
06.01.2019;21:30:00;240
06.01.2019;21:45:00;252
06.01.2019;22:00:00;244,8
06.01.2019;22:15:00;237,6
06.01.2019;22:30:00;235,2
06.01.2019;22:45:00;228
06.01.2019;23:00:00;223,2
06.01.2019;23:15:00;219,6
06.01.2019;23:30:00;219,6
06.01.2019;23:45:00;214,8
07.01.2019;00:00:00;208,8
07.01.2019;00:15:00;199,2
07.01.2019;00:30:00;193,2
07.01.2019;00:45:00;166,8
07.01.2019;01:00:00;171,6
07.01.2019;01:15:00;177,6
07.01.2019;01:30:00;182,4
07.01.2019;01:45:00;188,4
07.01.2019;02:00:00;205,2
07.01.2019;02:15:00;198
07.01.2019;02:30:00;190,8
07.01.2019;02:45:00;198
07.01.2019;03:00:00;193,2
07.01.2019;03:15:00;189,6
07.01.2019;03:30:00;189,6
07.01.2019;03:45:00;204
07.01.2019;04:00:00;202,8
07.01.2019;04:15:00;277,2
07.01.2019;04:30:00;283,2
07.01.2019;04:45:00;298,8
07.01.2019;05:00:00;304,8
07.01.2019;05:15:00;324
07.01.2019;05:30:00;356,4
07.01.2019;05:45:00;441,6
07.01.2019;06:00:00;433,2
07.01.2019;06:15:00;446,4
07.01.2019;06:30:00;494,4
07.01.2019;06:45:00;510
07.01.2019;07:00:00;492
07.01.2019;07:15:00;525,6
07.01.2019;07:30:00;516
07.01.2019;07:45:00;526,8
07.01.2019;08:00:00;538,8
07.01.2019;08:15:00;520,8
07.01.2019;08:30:00;471,6
07.01.2019;08:45:00;436,8
07.01.2019;09:00:00;426
07.01.2019;09:15:00;408
07.01.2019;09:30:00;403,2
07.01.2019;09:45:00;423,6
07.01.2019;10:00:00;391,2
07.01.2019;10:15:00;372
07.01.2019;10:30:00;357,6
07.01.2019;10:45:00;375,6
07.01.2019;11:00:00;421,2
07.01.2019;11:15:00;451,2
07.01.2019;11:30:00;337,2
07.01.2019;11:45:00;362,4
07.01.2019;12:00:00;416,4
07.01.2019;12:15:00;411,6
07.01.2019;12:30:00;392,4
07.01.2019;12:45:00;380,4
07.01.2019;13:00:00;338,4
07.01.2019;13:15:00;327,6
07.01.2019;13:30:00;406,8
07.01.2019;13:45:00;403,2
07.01.2019;14:00:00;376,8
07.01.2019;14:15:00;351,6
07.01.2019;14:30:00;356,4
07.01.2019;14:45:00;398,4
07.01.2019;15:00:00;402
07.01.2019;15:15:00;379,2
07.01.2019;15:30:00;321,6
07.01.2019;15:45:00;346,8
07.01.2019;16:00:00;376,8
07.01.2019;16:15:00;384
07.01.2019;16:30:00;390
07.01.2019;16:45:00;379,2
07.01.2019;17:00:00;381,6
07.01.2019;17:15:00;416,4
07.01.2019;17:30:00;421,2
07.01.2019;17:45:00;409,2
07.01.2019;18:00:00;382,8
07.01.2019;18:15:00;296,4
07.01.2019;18:30:00;343,2
07.01.2019;18:45:00;344,4
07.01.2019;19:00:00;342
07.01.2019;19:15:00;326,4
07.01.2019;19:30:00;304,8
07.01.2019;19:45:00;274,8
07.01.2019;20:00:00;306
07.01.2019;20:15:00;309,6
07.01.2019;20:30:00;316,8
07.01.2019;20:45:00;295,2
07.01.2019;21:00:00;300
07.01.2019;21:15:00;312
07.01.2019;21:30:00;308,4
07.01.2019;21:45:00;310,8
07.01.2019;22:00:00;297,6
07.01.2019;22:15:00;295,2
07.01.2019;22:30:00;290,4
07.01.2019;22:45:00;291,6
07.01.2019;23:00:00;292,8
07.01.2019;23:15:00;280,8
07.01.2019;23:30:00;282
07.01.2019;23:45:00;277,2
08.01.2019;00:00:00;266,4
08.01.2019;00:15:00;231,6
08.01.2019;00:30:00;231,6
08.01.2019;00:45:00;243,6
08.01.2019;01:00:00;243,6
08.01.2019;01:15:00;247,2
08.01.2019;01:30:00;270
08.01.2019;01:45:00;266,4
08.01.2019;02:00:00;260,4
08.01.2019;02:15:00;255,6
08.01.2019;02:30:00;262,8
08.01.2019;02:45:00;260,4
08.01.2019;03:00:00;261,6
08.01.2019;03:15:00;262,8
08.01.2019;03:30:00;259,2
08.01.2019;03:45:00;250,8
08.01.2019;04:00:00;244,8
08.01.2019;04:15:00;238,8
08.01.2019;04:30:00;223,2
08.01.2019;04:45:00;267,6
08.01.2019;05:00:00;236,4
08.01.2019;05:15:00;244,8
08.01.2019;05:30:00;253,2
08.01.2019;05:45:00;266,4
08.01.2019;06:00:00;260,4
08.01.2019;06:15:00;298,8
08.01.2019;06:30:00;331,2
08.01.2019;06:45:00;316,8
08.01.2019;07:00:00;338,4
08.01.2019;07:15:00;332,4
08.01.2019;07:30:00;352,8
08.01.2019;07:45:00;345,6
08.01.2019;08:00:00;345,6
08.01.2019;08:15:00;352,8
08.01.2019;08:30:00;339,6
08.01.2019;08:45:00;346,8
08.01.2019;09:00:00;346,8
08.01.2019;09:15:00;364,8
08.01.2019;09:30:00;358,8
08.01.2019;09:45:00;358,8
08.01.2019;10:00:00;363,6
08.01.2019;10:15:00;362,4
08.01.2019;10:30:00;355,2
08.01.2019;10:45:00;354
08.01.2019;11:00:00;358,8
08.01.2019;11:15:00;384
08.01.2019;11:30:00;487,2
08.01.2019;11:45:00;468
08.01.2019;12:00:00;481,2
08.01.2019;12:15:00;482,4
08.01.2019;12:30:00;487,2
08.01.2019;12:45:00;483,6
08.01.2019;13:00:00;472,8
08.01.2019;13:15:00;496,8
08.01.2019;13:30:00;490,8
08.01.2019;13:45:00;476,4
08.01.2019;14:00:00;506,4
08.01.2019;14:15:00;481,2
08.01.2019;14:30:00;492
08.01.2019;14:45:00;454,8
08.01.2019;15:00:00;410,4
08.01.2019;15:15:00;388,8
08.01.2019;15:30:00;380,4
08.01.2019;15:45:00;380,4
08.01.2019;16:00:00;358,8
08.01.2019;16:15:00;354
08.01.2019;16:30:00;355,2
08.01.2019;16:45:00;364,8
08.01.2019;17:00:00;363,6
08.01.2019;17:15:00;374,4
08.01.2019;17:30:00;380,4
08.01.2019;17:45:00;381,6
08.01.2019;18:00:00;372
08.01.2019;18:15:00;301,2
08.01.2019;18:30:00;285,6
08.01.2019;18:45:00;277,2
08.01.2019;19:00:00;272,4
08.01.2019;19:15:00;276
08.01.2019;19:30:00;276
08.01.2019;19:45:00;274,8
08.01.2019;20:00:00;259,2
08.01.2019;20:15:00;266,4
08.01.2019;20:30:00;252
08.01.2019;20:45:00;243,6
08.01.2019;21:00:00;247,2
08.01.2019;21:15:00;261,6
08.01.2019;21:30:00;249,6
08.01.2019;21:45:00;238,8
08.01.2019;22:00:00;224,4
08.01.2019;22:15:00;222
08.01.2019;22:30:00;214,8
08.01.2019;22:45:00;216
08.01.2019;23:00:00;189,6
08.01.2019;23:15:00;187,2
08.01.2019;23:30:00;283,2
08.01.2019;23:45:00;327,6
09.01.2019;00:00:00;328,8
09.01.2019;00:15:00;339,6
09.01.2019;00:30:00;332,4
09.01.2019;00:45:00;337,2
09.01.2019;01:00:00;332,4
09.01.2019;01:15:00;336
09.01.2019;01:30:00;337,2
09.01.2019;01:45:00;330
09.01.2019;02:00:00;322,8
09.01.2019;02:15:00;325,2
09.01.2019;02:30:00;328,8
09.01.2019;02:45:00;309,6
09.01.2019;03:00:00;240
09.01.2019;03:15:00;220,8
09.01.2019;03:30:00;200,4
09.01.2019;03:45:00;206,4
09.01.2019;04:00:00;208,8
09.01.2019;04:15:00;213,6
09.01.2019;04:30:00;208,8
09.01.2019;04:45:00;264
09.01.2019;05:00:00;265,2
09.01.2019;05:15:00;291,6
09.01.2019;05:30:00;285,6
09.01.2019;05:45:00;254,4
09.01.2019;06:00:00;250,8
09.01.2019;06:15:00;295,2
09.01.2019;06:30:00;333,6
09.01.2019;06:45:00;350,4
09.01.2019;07:00:00;357,6
09.01.2019;07:15:00;375,6
09.01.2019;07:30:00;382,8
09.01.2019;07:45:00;386,4
09.01.2019;08:00:00;392,4
09.01.2019;08:15:00;397,2
09.01.2019;08:30:00;375,6
09.01.2019;08:45:00;382,8
09.01.2019;09:00:00;380,4
09.01.2019;09:15:00;379,2
09.01.2019;09:30:00;391,2
09.01.2019;09:45:00;366
09.01.2019;10:00:00;363,6
09.01.2019;10:15:00;370,8
09.01.2019;10:30:00;369,6
09.01.2019;10:45:00;356,4
09.01.2019;11:00:00;363,6
09.01.2019;11:15:00;381,6
09.01.2019;11:30:00;370,8
09.01.2019;11:45:00;388,8
09.01.2019;12:00:00;388,8
09.01.2019;12:15:00;409,2
09.01.2019;12:30:00;402
09.01.2019;12:45:00;384
09.01.2019;13:00:00;390
09.01.2019;13:15:00;393,6
09.01.2019;13:30:00;414
09.01.2019;13:45:00;397,2
09.01.2019;14:00:00;392,4
09.01.2019;14:15:00;385,2
09.01.2019;14:30:00;385,2
09.01.2019;14:45:00;375,6
09.01.2019;15:00:00;379,2
09.01.2019;15:15:00;366
09.01.2019;15:30:00;493,2
09.01.2019;15:45:00;488,4
09.01.2019;16:00:00;486
09.01.2019;16:15:00;487,2
09.01.2019;16:30:00;492
09.01.2019;16:45:00;508,8
09.01.2019;17:00:00;502,8
09.01.2019;17:15:00;502,8
09.01.2019;17:30:00;502,8
09.01.2019;17:45:00;512,4
09.01.2019;18:00:00;494,4
09.01.2019;18:15:00;386,4
09.01.2019;18:30:00;338,4
09.01.2019;18:45:00;333,6
09.01.2019;19:00:00;322,8
09.01.2019;19:15:00;308,4
09.01.2019;19:30:00;289,2
09.01.2019;19:45:00;277,2
09.01.2019;20:00:00;256,8
09.01.2019;20:15:00;259,2
09.01.2019;20:30:00;253,2
09.01.2019;20:45:00;256,8
09.01.2019;21:00:00;268,8
09.01.2019;21:15:00;264
09.01.2019;21:30:00;259,2
09.01.2019;21:45:00;253,2
09.01.2019;22:00:00;248,4
09.01.2019;22:15:00;237,6
09.01.2019;22:30:00;241,2
09.01.2019;22:45:00;229,2
09.01.2019;23:00:00;224,4
09.01.2019;23:15:00;222
09.01.2019;23:30:00;216
09.01.2019;23:45:00;211,2
10.01.2019;00:00:00;208,8
10.01.2019;00:15:00;204
10.01.2019;00:30:00;202,8
10.01.2019;00:45:00;210
10.01.2019;01:00:00;214,8
10.01.2019;01:15:00;207,6
10.01.2019;01:30:00;200,4
10.01.2019;01:45:00;201,6
10.01.2019;02:00:00;199,2
10.01.2019;02:15:00;198
10.01.2019;02:30:00;193,2
10.01.2019;02:45:00;177,6
10.01.2019;03:00:00;182,4
10.01.2019;03:15:00;194,4
10.01.2019;03:30:00;192
10.01.2019;03:45:00;205,2
10.01.2019;04:00:00;222
10.01.2019;04:15:00;219,6
10.01.2019;04:30:00;216
10.01.2019;04:45:00;278,4
10.01.2019;05:00:00;314,4
10.01.2019;05:15:00;332,4
10.01.2019;05:30:00;333,6
10.01.2019;05:45:00;330
10.01.2019;06:00:00;358,8
10.01.2019;06:15:00;481,2
10.01.2019;06:30:00;510
10.01.2019;06:45:00;510